KB4ZQC Weather Reports


Display with metric or nautical units.
time (UTC)temp
F
wind
direction
speed
MPH
gust
MPH
rain 1hr
in
rain 24hr
in
rain mn
in
humidity
%
barometer
mb
20200331232324 83 240 6.0 10.0 0.00 0.00 0.00 70 1009.1
20200331231827 83 248 6.0 10.0 0.00 0.00 0.00 71 1009.0
20200331231330 83 248 7.0 12.0 0.00 0.00 0.00 71 1009.0
20200331230830 84 207 7.0 12.0 0.00 0.00 0.00 69 1009.0
20200331230403 84 249 9.0 12.0 0.00 0.00 0.00 69 1009.0
20200331225829 84 238 8.0 13.0 0.00 0.00 0.00 68 1009.0
20200331225330 85 266 6.0 10.0 0.00 0.00 0.00 67 1009.1
20200331224830 85 255 7.0 11.0 0.00 0.00 0.00 66 1009.1
20200331224330 85 211 5.0 12.0 0.00 0.00 0.00 67 1009.0
20200331223832 85 263 5.0 14.0 0.00 0.00 0.00 67 1009.0
20200331223333 85 243 10.0 14.0 0.00 0.00 0.00 65 1009.1
20200331222833 85 253 7.0 13.0 0.00 0.00 0.00 66 1009.1
20200331222333 85 255 6.0 13.0 0.00 0.00 0.00 67 1009.0
20200331221831 86 255 6.0 14.0 0.00 0.00 0.00 66 1009.1
20200331221332 86 251 8.0 16.0 0.00 0.00 0.00 65 1009.1
20200331220835 86 257 10.0 17.0 0.00 0.00 0.00 64 1009.2
20200331220319 86 249 7.0 17.0 0.00 0.00 0.00 64 1009.1
20200331215834 86 238 10.0 15.0 0.00 0.00 0.00 64 1009.1
20200331215326 87 235 6.0 14.0 0.00 0.00 0.00 63 1009.2
20200331214829 87 245 8.0 14.0 0.00 0.00 0.00 63 1009.1
20200331214330 87 262 9.0 12.0 0.00 0.00 0.00 64 1009.2
20200331213833 87 239 8.0 19.0 0.00 0.00 0.00 62 1009.3
20200331213334 87 257 10.0 16.0 0.00 0.00 0.00 62 1009.2
20200331212835 87 252 8.0 15.0 0.00 0.00 0.00 61 1009.1
20200331212333 88 263 10.0 14.0 0.00 0.00 0.00 60 1009.1
20200331211829 88 215 6.0 15.0 0.00 0.00 0.00 61 1009.2
20200331211325 88 249 9.0 18.0 0.00 0.00 0.00 60 1009.2
20200331210816 88 245 10.0 18.0 0.00 0.00 0.00 61 1009.2
20200331210338 88 276 10.0 18.0 0.00 0.00 0.00 59 1009.3
20200331205835 88 234 7.0 15.0 0.00 0.00 0.00 59 1009.2
20200331205321 88 239 8.0 15.0 0.00 0.00 0.00 60 1009.2
20200331204817 88 210 11.0 18.0 0.00 0.00 0.00 59 1009.3
20200331204319 88 276 10.0 18.0 0.00 0.00 0.00 58 1009.4
20200331203842 88 238 7.0 18.0 0.00 0.00 0.00 60 1009.3
20200331203332 88 263 11.0 18.0 0.00 0.00 0.00 58 1009.4
20200331202835 89 217 7.0 18.0 0.00 0.00 0.00 57 1009.4
20200331202335 89 289 8.0 18.0 0.00 0.00 0.00 56 1009.5
20200331201835 89 245 7.0 14.0 0.00 0.00 0.00 58 1009.5
20200331201318 89 266 10.0 14.0 0.00 0.00 0.00 58 1009.6
20200331200821 88 247 7.0 17.0 0.00 0.00 0.00 59 1009.7
20200331200323 88 256 10.0 18.0 0.00 0.00 0.00 56 1009.7
20200331195822 88 264 12.0 18.0 0.00 0.00 0.00 56 1009.8
20200331195323 89 235 6.0 16.0 0.00 0.00 0.00 56 1009.8
20200331194832 88 257 9.0 16.0 0.00 0.00 0.00 57 1009.9
20200331194335 88 222 10.0 17.0 0.00 0.00 0.00 56 1009.8
20200331193816 89 249 8.0 14.0 0.00 0.00 0.00 57 1009.8
20200331193318 89 224 7.0 13.0 0.00 0.00 0.00 54 1009.8
20200331192824 89 232 7.0 17.0 0.00 0.00 0.00 56 1009.9
20200331192325 89 275 10.0 17.0 0.00 0.00 0.00 57 1010.0
20200331191827 88 268 7.0 15.0 0.00 0.00 0.00 60 1010.0
20200331191326 89 242 7.0 14.0 0.00 0.00 0.00 60 1010.1
20200331190827 88 233 8.0 14.0 0.00 0.00 0.00 60 1010.2
20200331190328 88 206 7.0 16.0 0.00 0.00 0.00 61 1010.2
20200331185827 88 228 8.0 16.0 0.00 0.00 0.00 61 1010.3
20200331185326 88 273 3.0 11.0 0.00 0.00 0.00 61 1010.3
20200331184830 88 259 8.0 11.0 0.00 0.00 0.00 60 1010.4
20200331184329 88 275 6.0 11.0 0.00 0.00 0.00 60 1010.5
20200331183832 88 248 7.0 11.0 0.00 0.00 0.00 59 1010.6
20200331183334 88 245 7.0 12.0 0.00 0.00 0.00 59 1010.7
20200331182819 88 249 7.0 12.0 0.00 0.00 0.00 60 1010.7
20200331182339 88 248 5.0 12.0 0.00 0.00 0.00 61 1010.7
20200331181824 88 228 6.0 11.0 0.00 0.00 0.00 58 1010.8
20200331181320 88 195 5.0 11.0 0.00 0.00 0.00 60 1011.0
20200331180836 87 242 6.0 16.0 0.00 0.00 0.00 59 1011.0
20200331180317 88 264 8.0 14.0 0.00 0.00 0.00 59 1011.2
20200331175820 88 231 7.0 14.0 0.00 0.00 0.00 59 1011.2
20200331175324 88 224 5.0 13.0 0.00 0.00 0.00 59 1011.4
20200331174822 88 245 6.0 13.0 0.00 0.00 0.00 59 1011.5
20200331174324 88 245 5.0 11.0 0.00 0.00 0.00 62 1011.6
20200331173823 87 249 4.0 14.0 0.00 0.00 0.00 63 1011.8
20200331173326 87 232 5.0 14.0 0.00 0.00 0.00 64 1011.9
20200331172823 87 224 5.0 12.0 0.00 0.00 0.00 61 1011.9
20200331172325 87 226 6.0 12.0 0.00 0.00 0.00 61 1012.0
20200331171827 87 209 4.0 12.0 0.00 0.00 0.00 60 1012.1
20200331171328 86 238 7.0 12.0 0.00 0.00 0.00 62 1012.1
20200331170827 86 253 6.0 11.0 0.00 0.00 0.00 62 1012.2
20200331170327 86 226 5.0 12.0 0.00 0.00 0.00 65 1012.3
20200331165822 85 266 5.0 13.0 0.00 0.00 0.00 65 1012.4
20200331165318 85 245 7.0 12.0 0.00 0.00 0.00 65 1012.4
20200331164821 84 254 6.0 12.0 0.00 0.00 0.00 66 1012.5
20200331164323 84 209 9.0 12.0 0.00 0.00 0.00 66 1012.5
20200331163825 84 260 5.0 8.0 0.00 0.00 0.00 66 1012.6
20200331163329 85 280 6.0 9.0 0.00 0.00 0.00 66 1012.7
20200331162831 85 254 5.0 9.0 0.00 0.00 0.00 66 1012.7
20200331162334 85 194 3.0 12.0 0.00 0.00 0.00 65 1012.9
20200331161823 85 262 8.0 12.0 0.00 0.00 0.00 64 1012.9
20200331161326 85 231 3.0 9.0 0.00 0.00 0.00 64 1012.9
20200331160825 85 213 3.0 10.0 0.00 0.00 0.00 64 1012.9
20200331160328 85 239 6.0 11.0 0.00 0.00 0.00 66 1013.0
20200331155827 84 242 6.0 11.0 0.00 0.00 0.00 66 1013.0
20200331155327 84 240 6.0 10.0 0.00 0.00 0.00 66 1013.1
20200331154817 84 242 8.0 10.0 0.00 0.00 0.00 67 1013.3
20200331154326 83 242 5.0 8.0 0.00 0.00 0.00 69 1013.4
20200331153829 83 218 3.0 11.0 0.00 0.00 0.00 70 1013.4
20200331153332 83 221 5.0 11.0 0.00 0.00 0.00 70 1013.5
20200331152819 82 231 7.0 11.0 0.00 0.00 0.00 71 1013.5
20200331152324 82 203 3.0 10.0 0.00 0.00 0.00 72 1013.6
20200331151817 83 233 4.0 10.0 0.00 0.00 0.00 71 1013.6
20200331151357 83 252 3.0 7.0 0.00 0.00 0.00 71 1013.6
20200331150822 82 226 4.0 9.0 0.00 0.00 0.00 73 1013.7
20200331150326 82 252 5.0 9.0 0.00 0.00 0.00 72 1013.9
20200331145823 82 170 1.0 9.0 0.00 0.00 0.00 73 1013.8
20200331145324 82 198 2.0 4.0 0.00 0.00 0.00 74 1013.9
20200331144826 82 256 2.0 9.0 0.00 0.00 0.00 73 1013.9
20200331144325 81 246 5.0 10.0 0.00 0.00 0.00 74 1013.9
20200331143832 81 240 3.0 7.0 0.00 0.00 0.00 75 1013.9
20200331143317 81 228 4.0 7.0 0.00 0.00 0.00 75 1014.0
20200331142836 81 239 4.0 8.0 0.00 0.00 0.00 74 1013.9
20200331142331 81 245 2.0 8.0 0.00 0.00 0.00 75 1013.9
20200331141827 81 250 2.0 8.0 0.00 0.00 0.00 75 1013.9
20200331141325 80 233 3.0 7.0 0.00 0.00 0.00 77 1013.9
20200331140838 80 236 5.0 7.0 0.00 0.00 0.00 77 1013.9
20200331140333 80 130 3.0 6.0 0.00 0.00 0.00 77 1013.9
20200331135825 80 239 2.0 6.0 0.00 0.00 0.00 78 1013.9
20200331135325 79 249 2.0 9.0 0.00 0.00 0.00 80 1014.0
20200331134816 79 221 3.0 9.0 0.00 0.00 0.00 79 1014.2
20200331134319 79 229 4.0 6.0 0.00 0.00 0.00 81 1014.3
20200331133820 78 198 3.0 7.0 0.00 0.00 0.00 81 1014.3
20200331133319 78 241 4.0 7.0 0.00 0.00 0.00 82 1014.4
20200331132822 78 219 2.0 6.0 0.00 0.00 0.00 83 1014.4
20200331132329 78 246 4.0 6.0 0.00 0.00 0.00 84 1014.4
20200331131831 77 208 3.0 6.0 0.00 0.00 0.00 85 1014.5
20200331131334 77 240 4.0 6.0 0.00 0.00 0.00 85 1014.5
20200331130816 77 219 3.0 5.0 0.00 0.00 0.00 87 1014.5
20200331130403 76 249 2.0 4.0 0.00 0.00 0.00 89 1014.5
20200331125823 76 235 0.0 4.0 0.00 0.00 0.00 91 1014.6
20200331125338 76 205 1.0 4.0 0.00 0.00 0.00 91 1014.6
20200331124831 76 244 1.0 5.0 0.00 0.00 0.00 92 1014.7
20200331124331 76 222 0.0 5.0 0.00 0.00 0.00 93 1014.7
20200331123825 75 240 0.0 4.0 0.00 0.00 0.00 94 1014.7
20200331123336 75 231 0.0 2.0 0.00 0.00 0.00 95 1014.8
20200331122830 75 242 0.0 2.0 0.00 0.00 0.00 95 1014.7
20200331122331 74 246 0.0 1.0 0.00 0.00 0.00 96 1014.7
20200331121831 74 255 0.0 1.0 0.00 0.00 0.00 96 1014.7
20200331121332 74 244 0.0 1.0 0.00 0.00 0.00 97 1014.7
20200331120835 74 246 0.0 1.0 0.00 0.00 0.00 97 1014.7
20200331120318 73 241 0.0 1.0 0.00 0.00 0.00 97 1014.7
20200331115836 73 214 0.0 1.0 0.00 0.00 0.00 98 1014.7
20200331115318 73 214 0.0 1.0 0.00 0.00 0.00 98 1014.7
20200331114828 73 207 0.0 0.0 0.00 0.00 0.00 98 1014.8
20200331114331 72 206 0.0 0.0 0.00 0.00 0.00 98 1014.7
20200331113817 72 206 0.0 0.0 0.00 0.00 0.00 98 1014.7
20200331113319 72 269 0.0 0.0 0.00 0.00 0.00 97 1014.8
20200331112822 72 269 0.0 0.0 0.00 0.00 0.00 97 1014.7
20200331112320 72 269 0.0 0.0 0.00 0.00 0.00 97 1014.6
20200331111823 72 269 0.0 0.0 0.00 0.00 0.00 97 1014.5
20200331111326 72 269 0.0 0.0 0.00 0.00 0.00 97 1014.6
20200331110829 72 269 0.0 0.0 0.00 0.00 0.00 97 1014.6
20200331110330 72 269 0.0 0.0 0.00 0.00 0.00 97 1014.6
20200331105828 72 269 0.0 0.0 0.00 0.00 0.00 97 1014.6
20200331105329 72 269 0.0 0.0 0.00 0.00 0.00 97 1014.6
20200331104819 72 269 0.0 0.0 0.00 0.00 0.00 97 1014.5
20200331104318 72 269 0.0 0.0 0.00 0.00 0.00 97 1014.5
20200331103818 72 269 0.0 0.0 0.00 0.00 0.00 97 1014.6
20200331103322 72 269 0.0 0.0 0.00 0.00 0.00 97 1014.6
20200331102823 72 269 0.0 0.0 0.00 0.00 0.00 96 1014.6
20200331102321 72 269 0.0 0.0 0.00 0.00 0.00 96 1014.6
20200331101909 73 269 0.0 0.0 0.00 0.00 0.00 96 1014.6
20200331101331 73 269 0.0 0.0 0.00 0.00 0.00 97 1014.5
20200331100826 73 224 0.0 0.0 0.00 0.00 0.00 97 1014.4
20200331100321 73 224 0.0 0.0 0.00 0.00 0.00 96 1014.2
20200331095836 73 223 0.0 0.0 0.00 0.00 0.00 96 1014.2
20200331095331 73 224 0.0 0.0 0.00 0.00 0.00 96 1014.1
20200331094830 73 223 0.0 0.0 0.00 0.00 0.00 96 1014.1
20200331094318 73 222 0.0 0.0 0.00 0.00 0.00 96 1014.1
20200331093821 73 222 0.0 0.0 0.00 0.00 0.00 96 1014.0
20200331093323 73 222 0.0 1.0 0.00 0.00 0.00 96 1014.0
20200331092826 73 223 0.0 1.0 0.00 0.00 0.00 96 1014.1
20200331091330 73 217 0.0 0.0 0.00 0.00 0.00 96 1014.1
20200331090828 73 217 0.0 0.0 0.00 0.00 0.00 96 1014.1
20200331090329 73 217 0.0 0.0 0.00 0.00 0.00 95 1014.2
20200331085828 73 217 0.0 0.0 0.00 0.00 0.00 95 1014.2
20200331085330 73 217 0.0 1.0 0.00 0.00 0.00 95 1014.2
20200331084822 73 217 0.0 1.0 0.00 0.00 0.00 95 1014.2
20200331084328 73 203 0.0 0.0 0.00 0.00 0.00 96 1014.3
20200331083825 74 226 0.0 0.0 0.00 0.00 0.00 96 1014.3
20200331083327 74 242 0.0 1.0 0.00 0.00 0.00 96 1014.4
20200331082830 74 233 0.0 1.0 0.00 0.00 0.00 96 1014.5
20200331082317 73 245 0.0 0.0 0.00 0.00 0.00 96 1014.5
20200331081820 73 153 0.0 0.0 0.00 0.00 0.00 96 1014.4
20200331081322 73 152 0.0 0.0 0.00 0.00 0.00 96 1014.4
20200331080825 73 137 0.0 0.0 0.00 0.00 0.00 95 1014.4
20200331080328 73 136 0.0 0.0 0.00 0.00 0.00 96 1014.3
20200331075825 73 137 0.0 0.0 0.00 0.00 0.00 96 1014.4
20200331075321 73 136 0.0 0.0 0.00 0.00 0.00 96 1014.4
20200331074816 73 136 0.0 0.0 0.00 0.00 0.00 96 1014.4
20200331074334 73 136 0.0 0.0 0.00 0.00 0.00 96 1014.4
20200331073827 73 136 0.0 0.0 0.00 0.00 0.00 96 1014.4
20200331073321 73 136 0.0 0.0 0.00 0.00 0.00 96 1014.4
20200331072833 72 136 0.0 0.0 0.00 0.00 0.00 96 1014.4
20200331072333 72 136 0.0 0.0 0.00 0.00 0.00 96 1014.4
20200331071834 72 136 0.0 0.0 0.00 0.00 0.00 95 1014.6
20200331071319 72 136 0.0 0.0 0.00 0.00 0.00 95 1014.6
20200331070821 72 136 0.0 0.0 0.00 0.00 0.00 95 1014.5
20200331070321 72 136 0.0 0.0 0.00 0.00 0.00 95 1014.5
20200331065839 72 136 0.0 0.0 0.00 0.00 0.00 95 1014.6
20200331065327 72 136 0.0 0.0 0.00 0.00 0.00 95 1014.6
20200331064823 73 136 0.0 0.0 0.00 0.00 0.00 95 1014.8
20200331064323 73 136 0.0 0.0 0.00 0.00 0.00 95 1014.9
20200331063826 72 136 0.0 0.0 0.00 0.00 0.00 95 1015.0
20200331063328 72 136 0.0 0.0 0.00 0.00 0.00 95 1015.0
20200331062332 72 136 0.0 0.0 0.00 0.00 0.00 94 1015.3
20200331061828 72 136 0.0 0.0 0.00 0.00 0.00 94 1015.2
20200331061331 72 137 0.0 0.0 0.00 0.00 0.00 94 1015.2
20200331060830 72 136 0.0 0.0 0.00 0.00 0.00 94 1015.2
20200331060328 72 137 0.0 0.0 0.00 0.00 0.00 93 1015.1
20200331055828 73 136 0.0 0.0 0.00 0.00 0.00 93 1015.1
20200331055327 73 136 0.0 0.0 0.00 0.00 0.00 94 1015.1
20200331054830 73 136 0.0 0.0 0.00 0.00 0.00 93 1015.0
20200331054329 73 136 0.0 0.0 0.00 0.00 0.00 93 1015.0
20200331053831 73 136 0.0 0.0 0.00 0.00 0.00 93 1015.0
20200331053334 73 136 0.0 0.0 0.00 0.00 0.00 93 1015.1
20200331052816 73 136 0.0 0.0 0.00 0.00 0.00 93 1015.3
20200331052316 73 136 0.0 0.0 0.00 0.00 0.00 93 1015.3
20200331051817 73 136 0.0 0.0 0.00 0.00 0.00 93 1015.3
20200331051315 73 136 0.0 0.0 0.00 0.00 0.00 92 1015.5
20200331050818 74 136 0.0 0.0 0.00 0.00 0.00 93 1015.5
20200331050316 74 136 0.0 0.0 0.00 0.00 0.00 92 1015.5
20200331045831 74 137 0.0 0.0 0.00 0.00 0.00 92 1015.5
20200331045329 74 136 0.0 0.0 0.00 0.00 0.00 92 1015.7
20200331044827 74 136 0.0 0.0 0.00 0.00 0.00 91 1015.8
20200331044331 74 136 0.0 0.0 0.00 0.00 0.00 92 1015.8
20200331043832 74 136 0.0 0.0 0.00 0.00 0.00 91 1015.8
20200331043332 74 136 0.0 0.0 0.00 0.00 0.00 91 1015.9
20200331042824 74 134 0.0 0.0 0.00 0.00 0.00 91 1015.9
20200331042321 74 136 0.0 0.0 0.00 0.00 0.00 91 1015.9
20200331041835 74 135 0.0 0.0 0.00 0.00 0.00 91 1016.0
20200331041330 74 136 0.0 0.0 0.00 0.00 0.00 91 1016.1
20200331040823 75 136 0.0 0.0 0.00 0.00 0.00 91 1016.2
20200331040326 75 136 0.0 0.0 0.00 0.00 0.00 91 1016.2
20200331035829 75 134 0.0 0.0 0.00 0.00 0.00 90 1016.3
20200331035330 75 134 0.0 0.0 0.00 0.00 0.00 90 1016.3
20200331034832 75 134 0.0 1.0 0.00 0.00 0.00 90 1016.3
20200331034332 75 118 0.0 1.0 0.00 0.00 0.00 90 1016.3
20200331033836 75 152 0.0 1.0 0.00 0.00 0.00 90 1016.4
20200331033327 75 149 0.0 0.0 0.00 0.00 0.00 89 1016.5
20200331032830 75 149 0.0 0.0 0.00 0.00 0.00 89 1016.4
20200331032333 76 153 0.0 0.0 0.00 0.00 0.00 89 1016.4
20200331031815 76 152 0.0 1.0 0.00 0.00 0.00 89 1016.5
20200331031319 76 105 0.0 1.0 0.00 0.00 0.00 89 1016.5
20200331030819 76 91 0.0 1.0 0.00 0.00 0.00 89 1016.5
20200331030331 76 113 0.0 1.0 0.00 0.00 0.00 88 1016.5
20200331025831 76 94 0.0 3.0 0.00 0.00 0.00 88 1016.5
20200331025318 76 122 0.0 1.0 0.00 0.00 0.00 88 1016.5
20200331024830 76 119 0.0 0.0 0.00 0.00 0.00 88 1016.6
20200331024333 76 100 0.0 3.0 0.00 0.00 0.00 88 1016.6
20200331023835 77 103 1.0 4.0 0.00 0.00 0.00 88 1016.7
20200331023317 77 119 0.0 2.0 0.00 0.00 0.00 88 1016.7
20200331022901 77 68 0.0 2.0 0.00 0.00 0.00 88 1016.8
20200331022333 77 87 0.0 2.0 0.00 0.00 0.00 88 1016.8
20200331021834 77 101 0.0 2.0 0.00 0.00 0.00 87 1016.9
20200331021317 77 152 0.0 1.0 0.00 0.00 0.00 87 1016.9
20200331020818 77 98 0.0 2.0 0.00 0.00 0.00 87 1017.0
20200331020320 77 127 0.0 4.0 0.00 0.00 0.00 87 1017.1
20200331015818 77 153 1.0 4.0 0.00 0.00 0.00 87 1017.1
20200331015321 77 143 0.0 2.0 0.00 0.00 0.00 87 1017.1
20200331014323 77 91 1.0 3.0 0.00 0.00 0.00 87 1017.0
20200331013825 77 96 0.0 2.0 0.00 0.00 0.00 86 1017.0
20200331012816 77 111 0.0 3.0 0.00 0.00 0.00 86 1016.9
20200331012317 77 108 1.0 4.0 0.00 0.00 0.00 86 1016.9
20200331011835 77 92 2.0 4.0 0.00 0.00 0.00 86 1016.9
20200331011330 77 110 1.0 2.0 0.00 0.00 0.00 86 1016.9
20200331010826 78 114 0.0 3.0 0.00 0.00 0.00 86 1016.8
20200331010318 78 91 1.0 3.0 0.00 0.00 0.00 86 1016.7
20200331005817 78 100 1.0 5.0 0.00 0.00 0.00 86 1016.7
20200331005320 78 87 2.0 5.0 0.00 0.00 0.00 85 1016.7
20200331004823 78 101 1.0 6.0 0.00 0.00 0.00 85 1016.6
20200331004326 78 113 3.0 6.0 0.00 0.00 0.00 85 1016.6
20200331003829 78 103 1.0 5.0 0.00 0.00 0.00 85 1016.6
20200331003331 78 73 1.0 4.0 0.00 0.00 0.00 84 1016.5
20200331002819 78 150 1.0 5.0 0.00 0.00 0.00 84 1016.4
20200331002328 78 119 1.0 5.0 0.00 0.00 0.00 84 1016.4
20200331001817 78 108 0.0 6.0 0.00 0.00 0.00 83 1016.4
20200331001324 79 96 2.0 6.0 0.00 0.00 0.00 83 1016.4
20200331000827 79 129 2.0 4.0 0.00 0.00 0.00 82 1016.3
20200331000340 79 100 1.0 3.0 0.00 0.00 0.00 82 1016.3
20200330235830 79 86 0.0 5.0 0.00 0.00 0.00 81 1016.2
20200330235332 79 105 1.0 5.0 0.00 0.00 0.00 81 1016.2
20200330234822 79 96 2.0 5.0 0.00 0.00 0.00 80 1016.2
20200330234335 80 60 0.0 6.0 0.00 0.00 0.00 80 1016.2
20200330233834 80 119 1.0 6.0 0.00 0.00 0.00 80 1016.2
20200330233335 80 118 2.0 7.0 0.00 0.00 0.00 79 1016.2
20200330232816 80 253 1.0 6.0 0.00 0.00 0.00 79 1016.2